P/2019 Y2 ( Fuls )

Japanese version
Home page
Updated on January 10, 2020

---------------------------------------------------------------------

* Profile

Discovery Date December 21, 2019
Magnitude 18.8 mag
Discoverer D. Carson Fuls (Mount Lemmon Survey)

* Orbital Elements

Epoch 2020 Feb. 1.0 TT = JDT 2458880.5                                          
T 2020 Jan. 30.83335 TT                                 Rudenko                 
q   2.1300252            (2000.0)            P               Q                  
n   0.14927596     Peri.   91.81945     -0.98866077     -0.12420352             
a   3.5194607      Node    81.05241     +0.07935890     -0.90929532             
e   0.3947865      Incl.    4.90131     +0.12748350     -0.39718446             
P   6.60                                                                        
From 155 observations 2019 Dec. 21-2020 Jan. 7, mean residual 0".7.             

* Finding Charts

* Magnitudes Graph

        m1 = 13.0 + 5 log d + 10.0 log r

---------------------------------------------------------------------

The orbital elements are published on M.P.E.C. 2020-A91.
The charts are made with StellaNavigator Ver.10 (AstroArts).
The magnitudes graphs are made with Comet for Windows.

---------------------------------------------------------------------

Copyright(C) Seiichi Yoshida (comet@aerith.net). All rights reserved.